TimeEDT,TemperatureF,Dew PointF,Humidity,Sea Level PressureIn,VisibilityMPH,Wind Direction,Wind SpeedMPH,Gust SpeedMPH,PrecipitationIn,Events,Conditions,WindDirDegrees,DateUTC
12:15 AM,64.8,54.0,68,30.07,10.0,SW,3.5,-,N/A,,Clear,220,2013-09-07 04:15:00
12:34 AM,64.4,53.8,68,30.07,10.0,Calm,Calm,-,N/A,,Clear,0,2013-09-07 04:34:00
12:54 AM,63.0,54.0,72,30.07,10.0,SSW,3.5,-,N/A,,Clear,200,2013-09-07 04:54:00
1:15 AM,62.8,54.0,73,30.07,10.0,South,4.6,-,N/A,,Clear,190,2013-09-07 05:15:00
1:34 AM,63.5,54.0,71,30.07,10.0,Calm,Calm,-,N/A,,Clear,0,2013-09-07 05:34:00
1:54 AM,63.3,53.8,71,30.07,10.0,Calm,Calm,-,N/A,,Clear,0,2013-09-07 05:54:00
2:15 AM,63.0,53.8,72,30.07,10.0,Calm,Calm,-,N/A,,Clear,0,2013-09-07 06:15:00
2:34 AM,62.6,54.0,73,30.07,10.0,Calm,Calm,-,N/A,,Clear,0,2013-09-07 06:34:00
2:54 AM,63.0,54.0,72,30.07,10.0,Calm,Calm,-,N/A,,Clear,0,2013-09-07 06:54:00
3:15 AM,61.9,54.1,76,30.06,10.0,Calm,Calm,-,N/A,,Clear,0,2013-09-07 07:15:00
3:34 AM,62.8,54.5,74,30.06,10.0,Calm,Calm,-,N/A,,Clear,0,2013-09-07 07:34:00
3:54 AM,62.1,54.0,75,30.06,10.0,Calm,Calm,-,N/A,,Clear,0,2013-09-07 07:54:00
4:15 AM,62.6,53.8,73,30.06,10.0,Calm,Calm,-,N/A,,Clear,0,2013-09-07 08:15:00
4:34 AM,61.7,53.8,75,30.05,10.0,Calm,Calm,-,N/A,,Clear,0,2013-09-07 08:34:00
4:54 AM,61.0,53.8,77,30.05,10.0,SSW,3.5,-,N/A,,Clear,200,2013-09-07 08:54:00
5:15 AM,61.2,54.5,79,30.05,10.0,SSW,4.6,-,N/A,,Clear,210,2013-09-07 09:15:00
5:34 AM,62.6,54.0,73,30.05,10.0,Calm,Calm,-,N/A,,Scattered Clouds,0,2013-09-07 09:34:00
5:55 AM,61.7,54.1,76,30.05,10.0,SSW,3.5,-,N/A,,Mostly Cloudy,200,2013-09-07 09:55:00
6:14 AM,61.2,54.0,77,30.05,10.0,Calm,Calm,-,N/A,,Scattered Clouds,0,2013-09-07 10:14:00
6:35 AM,61.2,54.1,78,30.04,10.0,South,3.5,-,N/A,,Clear,190,2013-09-07 10:35:00
6:55 AM,60.8,54.3,79,30.04,10.0,North,4.6,-,N/A,,Clear,10,2013-09-07 10:55:00
7:14 AM,60.8,54.5,80,30.04,10.0,WNW,3.5,-,N/A,,Clear,290,2013-09-07 11:14:00
7:35 AM,60.8,54.7,80,30.04,10.0,WSW,3.5,-,N/A,,Clear,250,2013-09-07 11:35:00
7:54 AM,61.2,55.4,81,30.04,10.0,SSW,3.5,-,N/A,,Clear,200,2013-09-07 11:54:00
8:14 AM,62.2,56.1,80,30.04,10.0,SSW,5.8,-,N/A,,Clear,210,2013-09-07 12:14:00
8:35 AM,63.7,56.7,78,30.04,10.0,SSW,6.9,-,N/A,,Clear,210,2013-09-07 12:35:00
8:54 AM,65.8,58.1,76,30.03,10.0,SSW,8.1,-,N/A,,Clear,210,2013-09-07 12:54:00
9:14 AM,66.2,58.6,77,30.03,10.0,SSW,5.8,-,N/A,,Clear,210,2013-09-07 13:14:00
9:35 AM,68.0,59.7,75,30.03,10.0,SSW,5.8,-,N/A,,Clear,210,2013-09-07 13:35:00
9:54 AM,70.0,60.8,73,30.02,10.0,SW,5.8,-,N/A,,Clear,230,2013-09-07 13:54:00
10:14 AM,72.9,62.1,69,30.03,10.0,SW,6.9,-,N/A,,Clear,230,2013-09-07 14:14:00
10:35 AM,75.9,62.6,63,30.02,10.0,SW,6.9,-,N/A,,Clear,230,2013-09-07 14:35:00
10:54 AM,78.1,63.1,60,30.02,10.0,SW,6.9,-,N/A,,Clear,230,2013-09-07 14:54:00
11:14 AM,79.5,63.3,58,30.01,10.0,SW,8.1,-,N/A,,Clear,220,2013-09-07 15:14:00
11:35 AM,80.6,63.5,56,30.01,10.0,SW,5.8,-,N/A,,Clear,230,2013-09-07 15:35:00
11:54 AM,81.5,63.9,55,30.00,10.0,WSW,5.8,16.1,N/A,,Clear,250,2013-09-07 15:54:00
12:15 PM,82.9,63.5,52,29.99,10.0,SW,8.1,-,N/A,,Clear,230,2013-09-07 16:15:00
12:34 PM,83.3,63.1,50,29.98,10.0,WSW,9.2,-,N/A,,Clear,240,2013-09-07 16:34:00
12:53 PM,84.6,62.6,48,29.99,10.0,SW,8.1,-,N/A,,Clear,220,2013-09-07 16:53:00
1:14 PM,83.3,63.0,50,29.98,10.0,SW,4.6,-,N/A,,Scattered Clouds,230,2013-09-07 17:14:00
1:34 PM,83.8,61.7,47,29.98,10.0,WSW,8.1,-,N/A,,Scattered Clouds,240,2013-09-07 17:34:00
1:55 PM,87.1,59.4,39,29.96,10.0,West,9.2,17.3,N/A,,Clear,270,2013-09-07 17:55:00
2:14 PM,87.6,60.3,40,29.96,10.0,WSW,10.4,-,N/A,,Scattered Clouds,250,2013-09-07 18:14:00
2:34 PM,87.6,59.0,38,29.95,10.0,West,11.5,-,N/A,,Scattered Clouds,270,2013-09-07 18:34:00
2:55 PM,88.3,59.5,38,29.95,10.0,WSW,4.6,-,N/A,,Clear,250,2013-09-07 18:55:00
3:14 PM,88.2,60.3,39,29.94,10.0,West,6.9,10.4,N/A,,Scattered Clouds,280,2013-09-07 19:14:00
3:35 PM,88.5,61.0,39,29.93,10.0,West,10.4,-,N/A,,Scattered Clouds,280,2013-09-07 19:35:00
3:54 PM,88.5,61.3,40,29.94,10.0,WNW,10.4,-,N/A,,Mostly Cloudy,290,2013-09-07 19:54:00
4:14 PM,87.4,61.9,42,29.94,10.0,WNW,9.2,-,N/A,,Overcast,290,2013-09-07 20:14:00
4:35 PM,86.7,60.6,41,29.95,10.0,WNW,11.5,17.3,N/A,,Scattered Clouds,300,2013-09-07 20:35:00
4:54 PM,84.9,59.9,43,29.95,10.0,WNW,15.0,-,N/A,,Clear,300,2013-09-07 20:54:00
5:15 PM,83.3,58.3,42,29.95,10.0,WNW,15.0,-,N/A,,Clear,290,2013-09-07 21:15:00
5:35 PM,82.4,58.1,43,29.94,10.0,WNW,10.4,-,N/A,,Scattered Clouds,290,2013-09-07 21:35:00
5:54 PM,81.1,59.0,47,29.94,10.0,West,10.4,-,N/A,,Scattered Clouds,280,2013-09-07 21:54:00
6:15 PM,78.6,61.3,55,29.94,10.0,West,11.5,-,N/A,Rain,Light Rain,280,2013-09-07 22:15:00
6:34 PM,78.1,61.9,57,29.93,10.0,West,9.2,-,N/A,,Scattered Clouds,270,2013-09-07 22:34:00
6:55 PM,77.7,62.1,58,29.94,10.0,WNW,9.2,-,N/A,,Clear,290,2013-09-07 22:55:00
7:14 PM,77.2,62.8,61,29.93,10.0,WNW,4.6,-,N/A,,Clear,300,2013-09-07 23:14:00
7:34 PM,75.7,63.1,65,29.93,10.0,West,4.6,-,N/A,,Scattered Clouds,280,2013-09-07 23:34:00
7:55 PM,75.7,63.7,66,29.93,10.0,Calm,Calm,-,N/A,,Mostly Cloudy,0,2013-09-07 23:55:00
8:14 PM,75.4,63.7,67,29.94,10.0,WNW,3.5,-,N/A,,Overcast,290,2013-09-08 00:14:00
8:35 PM,75.0,64.2,69,29.95,10.0,Calm,Calm,-,N/A,,Overcast,0,2013-09-08 00:35:00
8:55 PM,74.5,64.4,71,29.95,10.0,Calm,Calm,-,N/A,,Overcast,0,2013-09-08 00:55:00
9:14 PM,73.9,64.4,72,29.95,10.0,Calm,Calm,-,N/A,,Overcast,0,2013-09-08 01:14:00
9:35 PM,74.5,63.7,69,29.95,10.0,Calm,Calm,-,N/A,,Overcast,0,2013-09-08 01:35:00
9:54 PM,73.6,64.4,73,29.95,10.0,Calm,Calm,-,N/A,,Overcast,0,2013-09-08 01:54:00
10:14 PM,73.0,65.3,77,29.96,10.0,Calm,Calm,-,N/A,,Overcast,0,2013-09-08 02:14:00
10:35 PM,72.5,65.5,79,29.96,10.0,Calm,Calm,-,N/A,,Overcast,0,2013-09-08 02:35:00
10:54 PM,72.5,65.5,79,29.96,10.0,Calm,Calm,-,N/A,,Overcast,0,2013-09-08 02:54:00
11:14 PM,72.5,65.3,78,29.96,10.0,Calm,Calm,-,N/A,,Overcast,0,2013-09-08 03:14:00
11:35 PM,72.5,65.3,78,29.96,10.0,Calm,Calm,-,N/A,,Overcast,0,2013-09-08 03:35:00
11:54 PM,72.5,65.3,78,29.96,10.0,Calm,Calm,-,N/A,,Overcast,0,2013-09-08 03:54:00